www.pogodaiklimat.ru

Погода и климат >> Архив погоды >> Индонезия >> Лувук


ПОГОДА в Лувуке

  • Прогноз погоды в Лувуке
  • Монитор погоды в Лувуке

АРХИВ ПОГОДЫ в Лувуке

Время (UTC), дата Ветер
(напр.,м/с)
 
Видим.   Явления Облачность Т
(С)
Тd
(С)
f
(%)
Тe
(С)
Тes
(С)
Комфортность P
(гПа)
Po
(гПа)
Тmin
(С)
Tmax
(С)
R
(мм)
R24
(мм)
S
(см)
12 12.07 З 2 8000 м осадки на расстоянии 9/4 570 м
[Cu med, cong Ac As Ci fib]
+25.7 +20.2 72 +32 +32 очень
душно
1013.8 1011.7 +26.6
15 12.07 З 2 8000 м 9/4 570 м
[Cu med, cong Ac As Ci fib]
+25.5 +19.7 70 +31 +31 очень
душно
1014.6 1012.5
18 12.07 З 2 8000 м 9/4 570 м
[Cu med, cong Ac As Ci fib]
+25.4 +19.7 71 +31 +31 очень
душно
1012.9 1010.8
21 12.07 З 4 8000 м 9/4 570 м
[Sc diur, vesp Ac As Ci fib]
+25.0 +19.8 73 +31 +31 очень
душно
1013.0 1010.9
00 13.07 штиль 0 8000 м осадки на расстоянии 9/4 540 м
[Sc diur, vesp Ac As Ci fib]
+24.9 +20.3 76 +31 +33 очень
душно
1014.8 1012.7 +22.8 2
03 13.07 З 3 10 км {дождь} 9/4 600 м
[Sc diur, vesp Ac und Ci fib]
+25.5 +19.9 71 +31 +37 очень
душно
1013.9 1011.8 1
06 13.07 З 3 8000 м осадки на расстоянии 10/4 540 м
[Sc diur, vesp Ac As Ci fib]
+25.1 +20.4 75 +31 +35 очень
душно
1014.8 1012.7 1
09 13.07 З 3 9000 м 10/4 570 м
[Sc diur, vesp Ac As Ci fib]
+24.6 +18.3 68 +29 +29 душно 1011.7 1009.6
12 13.07 ЮЗ 5 9000 м осадки на расстоянии 10/5 500 м
[Sc diur, vesp As op]
+24.2 +18.7 71 +29 +29 душно 1013.9 1011.8 +26.0
15 13.07 ЮЗ 1 10 км 9/4 600 м
[Sc diur, vesp Ac As Ci fib]
+24.0 +19.9 78 +29 +29 душно 1014.4 1012.3
18 13.07 З 4 10 км 9/4 570 м
[Sc diur, vesp Ac As Ci fib]
+25.2 +18.8 68 +30 +30 душно 1012.6 1010.5
21 13.07 ЮЗ 3 10 км 9/4 570 м
[Sc diur, vesp Ac As Ci fib]
+24.3 +20.0 77 +30 +30 очень
душно
1012.2 1010.1
00 14.07 З 2 10 км 9/4 570 м
[Sc Ac As Ci fib]
+24.5 +20.2 77 +30 +32 очень
душно
1013.8 1011.7 +22.7 1
03 14.07 ЮЗ 4 10 км в посл. час дождь 9/4 570 м
[Sc diur, vesp Ac As Ci fib]
+25.2 +20.4 75 +31 +36 очень
душно
1013.5 1011.4 0.0
06 14.07 ЮЗ 4 8000 м 9/4 570 м
[Sc diur, vesp Ac As Ci fib]
+28.1 +20.1 62 +34 +38 очень
душно
1011.4 1009.3
09 14.07 З 3 8000 м 9/4 570 м
[Sc diur, vesp Ac As Ci fib]
+25.9 +20.0 70 +32 +32 очень
душно
1011.4 1009.3 0.0
12 14.07 штиль 0 10 км {дождь} 5/3 600 м
[Sc diur, vesp Ac trans Ci fib]
+23.8 +20.1 80 +29 +29 душно 1012.9 1010.8 +28.9 0.0
15 14.07 З 2 10 км 5/3 600 м
[Sc diur, vesp Ac trans Ci fib]
+26.2 +19.6 67 +32 +32 очень
душно
1013.2 1011.1
18 14.07 З 2 10 км 5/3 600 м
[Sc diur, vesp Ac trans Ci fib]
+25.7 +19.6 69 +31 +31 очень
душно
1011.9 1009.6
21 14.07 З 3 9000 м в посл. час дождь 9/4 570 м
[Sc diur, vesp Ac As Ci fib]
+23.4 +20.0 81 +30 +30 очень
душно
1012.1 1010.0 2
00 15.07 З 3 8000 м 9/4 570 м
[Sc diur, vesp Ac As Ci fib]
+25.3 +21.4 79 +32 +34 очень
душно
1013.2 1011.1 +22.8 2
03 15.07 Ю 3 8000 м 9/4 570 м
[Sc diur, vesp Ac As Ci fib]
+28.3 +22.1 69 +37 +42 очень
душно
1012.0 1009.9
06 15.07 З 6 6000 м слаб. дождь 9/4 500 м
[Cu med, cong Ac As Ci fib]
+25.7 +22.3 82 +34 +36 очень
душно
1009.9 1007.8 2
09 15.07 З 4 8000 м слаб. дождь 9/4 500 м
[Cu med, cong Ac As Ci fib]
+24.5 +21.0 81 +31 +31 очень
душно
1009.9 1007.8 1
12 15.07 З 2 8000 м {дождь} 9/4 570 м
[Sc Ac und]
+25.2 +20.7 76 +31 +31 очень
душно
1011.9 1009.8 +29.2 5
15 15.07 З 3 7000 м слаб. дождь 9/4 540 м
[Sc diur, vesp As op]
+23.5 +21.4 88 +30 +30 очень
душно
1013.0 1010.9 2
18 15.07 З 2 8000 м {дождь} 9/4 570 м
[Sc As trans]
+24.7 +20.6 78 +31 +31 очень
душно
1011.6 1009.5 0.9
21 15.07 З 4 7000 м слаб. дождь 9/4 500 м
[Sc As op]
+23.4 +21.3 88 +31 +31 очень
душно
1011.8 1009.7 2
00 16.07 З 2 10 км {дождь} 9/4 570 м
[Sc Ac As Ci fib]
+26.1 +21.3 75 +33 +35 очень
душно
1012.8 1010.7 +23.0 12
03 16.07 Ю 2 10 км 9/4 600 м
[Cu hum Ac As Ci fib]
+30.0 +22.3 63 +39 +45 очень
душно
1011.9 1009.8
06 16.07 ЮЗ 3 10 км 9/4 600 м
[Sc diur, vesp Ac As Ci fib]
+28.8 +22.7 70 +38 +42 очень
душно
1009.8 1007.7
09 16.07 ЮЗ 3 12 км 6/3 600 м
[Sc diur, vesp Ac As Ci fib]
+28.3 +22.0 69 +37 +37 очень
душно
1008.9 1006.8
12 16.07 З 3 8000 м 9/5 540 м
[Cu Sc Ac As Ci fib]
+25.2 +22.7 86 +33 +33 очень
душно
1011.2 1009.1 +30.2
15 16.07 З 3 8000 м в посл. час дождь 9/4 570 м
[Sc diur, vesp Ac As Ci fib]
+25.4 +22.3 83 +33 +33 очень
душно
1011.9 1009.8 2
18 16.07 З 4 8000 м {дождь} 9/4 570 м
[Sc diur, vesp Ac As Ci fib]
+25.2 +22.1 83 +33 +33 очень
душно
1010.7 1008.6 2
21 16.07 ЮЗ 4 7000 м слаб. дождь 10/5 500 м
[Sc diur, vesp Ac As]
+23.6 +22.4 93 +31 +31 очень
душно
1011.1 1009.0 5
00 17.07 ЮЗ 4 8000 м в посл. час дождь 9/4 570 м
[Sc Ac inh]
+25.0 +23.1 89 +33 +34 очень
душно
1012.2 1010.1 +21.0 2
03 17.07 З 4 8000 м сильная пыльная буря 9/9 570 м
[]
+26.0 +22.3 80 +34 +35 очень
душно
1011.0 1008.9 0.0
06 17.07 З 4 9000 м {дождь} 9/4 570 м
[Sc diur, vesp Ac As Ci fib]
+27.1 +22.3 75 +35 +39 очень
душно
1008.9 1006.8 1
09 17.07 ЮЗ 4 8000 м в посл. час дождь 9/5 540 м
[Sc diur, vesp As op]
+24.5 +22.3 88 +32 +32 очень
душно
1009.2 1007.1 2
12 17.07 ЮЗ 2 9000 м осадки на расстоянии 9/4 570 м
[Cu med, cong Ac As Ci fib]
+25.5 +22.4 83 +33 +33 очень
душно
1010.3 1008.2 +27.2
15 17.07 Ю 1 9000 м осадки на расстоянии 9/4 540 м
[Cu med, cong Ac As Ci fib]
+24.3 +22.7 91 +32 +32 очень
душно
1011.3 1009.2 4
18 17.07 З 1 10 км осадки на расстоянии 9/4 540 м
[Cu med, cong Ac As Ci fib]
+24.3 +23.3 94 +33 +33 очень
душно
1010.2 1008.1 2
21 17.07 штиль 0 10 км осадки на расстоянии 9/4 570 м
[Sc diur, vesp Ac As Ci fib]
+24.1 +23.1 94 +32 +32 очень
душно
1010.2 1008.1 3
00 18.07 ЮЗ 1 10 км 8/3 600 м
[Cu hum Ac As Ci fib]
+27.1 +24.2 84 +38 +41 очень
душно
1011.3 1009.2 +23.9 11
06 18.07 Ю 4 8000 м 9/4 570 м
[Sc diur, vesp Ac As Ci fib]
+27.3 +24.0 82 +38 +41 очень
душно
1008.9 1006.8
09 18.07 Ю 2 2000 м слаб. дождь 9/5 420 м
[Frnb Ac As Ci fib]
+25.2 +24.3 95 +35 +35 очень
душно
1008.6 1006.5 3
12 18.07 штиль 0 8000 м {дождь} 9/4 570 м
[Sc Ac und]
+24.7 +23.4 92 +33 +33 очень
душно
1010.4 1008.3 +30.1 1
15 18.07 З 1 8000 м 9/4 570 м
[Sc Ac As]
+25.0 +23.0 89 +33 +33 очень
душно
1011.2 1009.1
18 18.07 СЗ 1 8000 м 9/4 570 м
[Sc diur, vesp Ac As Ci fib]
+23.8 +22.6 93 +31 +31 очень
душно
1010.4 1008.3
21 18.07 ЮЗ 1 9000 м 8/4 570 м
[Sc diur, vesp Ac As Ci fib]
+24.7 +22.3 87 +32 +32 очень
душно
1010.2 1008.1
00 19.07 штиль 0 10 км 9/4 570 м
[Cu med, cong Ac As Ci fib]
+26.5 +23.5 84 +36 +39 очень
душно
1011.3 1009.2 +23.8 4
03 19.07 Ю 2 10 км 6/3 600 м
[Cu med, cong Ac As Ci fib]
+29.2 +24.8 77 +42 +52 опасность
перегрева
1010.9 1008.8
06 19.07 Ю 2 10 км 6/3 600 м
[Cu med, cong Ac As Ci fib]
+29.1 +24.6 77 +41 +49 опасность
перегрева
1009.0 1006.9
09 19.07 ЮЗ 2 10 км 6/3 600 м
[Cu med, cong Ac As Ci fib]
+27.4 +24.3 83 +38 +39 очень
душно
1009.0 1006.9

 

Местоположение метеостанции Лувук (Индонезия): широта -0.90 долгота 122.78 высота над уровнем моря 2 м.

В архиве по умолчанию представлена погода в Лувуке за последнюю неделю. Архивные данные за месяц целиком и за предыдущие месяцы, начиная с января 2011 года, Вы можете получить, выбрав интересующий диапазон дат из раскрывающегося списка и нажав кнопку "Ввод!".


*Определитесь, кто Вы:
робот инопланетянин человек

Внимание! Время в таблицах - всемирное. Для получения местного времени необходимо прибавить поправку, которая равна 8 ч.

Смотрите также архив погоды в соседних городах и на ближайших метеорологических станциях:

Погода в Горонтало (Индонезия) (161 км)
Погода в Посо (Индонезия) (234 км)
Погода в Толи-Толи (Индонезия) (307 км)
Погода в Масамбе (Индонезия) (326 км)
Погода в Палу (Индонезия) (340 км)
Погода в Кендари (Индонезия) (358 км)
Погода в Менадо (Индонезия) (359 км)
Погода в Битунге (Индонезия) (372 км)
Погода на Санане (Индонезия) (381 км)
Погода в Колаке (Индонезия) (403 км)

Пояснения к столбцам:

Ветер - указаны скорость ветра в м/с - средняя за 10 мин, порывы в срок и между сроками (в фигурных скобках) и направление, откуда дует ветер: С - северный, СВ - северо-восточный, В - восточный, ЮВ - юго-восточный, Ю - южный, ЮЗ - юго-западный, З - западный, СЗ - северо-западный.
Видимость - горизонтальная дальность видимости в метрах или километрах. При видимости от 1 до 10 км при отсутствии осадков обычно наблюдается дымка, при ухудшении видимости до 1 км и менее - туман. В сухую погоду видимость может ухудшаться дымом, пылью или мглою.
Явления - указаны атмосферные явления, наблюдавшиеся в срок или в последний час перед сроком; фигурными скобками обозначены явления, наблюдавшиеся между сроками (за 1-3 часа до срока); квадратными скобками обозначены град или гололедные отложения с указанием их диаметра в мм.
Облачность - указаны через наклонную черту общая и нижняя облачность в баллах и высота нижней границы облаков в метрах; квадратными скобками обозначены формы облаков: Ci - перистые, Cs - перисто-слоистые, Cc - перисто-кучевые, Ac - высококучевые, As - высокослоистые, Sc - слоисто-кучевые, Ns - слоисто-дождевые, Cu - кучевые, Cb - кучево-дождевые. Подробнее классификацию облаков см. в Атласе облаков (PDF).
T - Температура воздуха - температура, измеренная на высоте 2 м над землей.
Td - Температура точки росы - температура, при понижении до которой содержащийся в воздухе водяной пар достигнет насыщения.
f - Относительная влажность воздуха - влажноcть воздуха, измеренная на высоте 2 м над землей.
Te - Эффективная температура - температура, которую ощущает одетый по сезону человек в тени. Характеристика душности погоды. При расчете учитывается влияние влажности воздуха и скорости ветра на теплоощущения человека.
Tes - Эффективная температура на солнце - температура, которую ощущает человек, с поправкой на солнечный нагрев. Характеристика знойности погоды. Зависит от высоты солнца над горизонтом, облачности и скорости ветра. Ночью, в пасмурную погоду, а также при ветре 12 м/с и более поправка равна нулю.
P - Атмосферное давление - приведенное к уровню моря атмосферное давление.
Po - Атмосферное давление - измеренное на уровне метеостанции атмосферное давление.
Tmin - Минимальная температура - минимум температуры воздуха на высоте 2 м над землей.
Tmax - Максимальная температура - максимум температуры воздуха на высоте 2 м над землей.
R - Количество осадков - Количество выпавших осадков за период времени, мм. При наведении курсора мыши на число - период времени, за который выпало указанное количество осадков.
R24 - Количество осадков - Количество выпавших осадков за 24 часа, мм.
S - Снежный покров - Высота снежного покрова, см. При наведении курсора мыши на число - состояние снежного покрова и степень покрытия местности в баллах.